Location: Angwan Shehu
(11.2514°N, 7.4613°E)
Time: 19:59:49
(UTC+00:00)

Vanguard 3 - Visible Passes

Search period start: 17 April 2021 00:00
Search period end: 27 April 2021 00:00
Orbit: 508 x 3262 km, 33.3° (Epoch: 17 April)

Date Brightness Start Highest point End Pass type
(mag) Time Alt. Az. Time Alt. Az. Time Alt. Az.
17 Apr 10.3 19:13:21 10° S 19:21:04 16° SSE 19:21:43 16° SSE visible
17 Apr 10.9 21:25:59 10° SW 21:26:18 11° SW 21:26:18 11° SW visible
18 Apr 10.6 18:00:06 10° S 18:03:34 11° SSE 18:06:45 10° SSE visible
18 Apr 10.1 20:09:50 10° SSW 20:16:46 24° S 20:16:46 24° S visible
19 Apr 10.0 18:54:04 10° SSW 19:04:46 21° SSE 19:07:20 20° SE visible
19 Apr 10.4 21:08:03 10° SW 21:11:56 20° SW 21:11:56 20° SW visible
20 Apr 9.6 19:51:24 10° SSW 20:02:36 36° S 20:02:36 36° S visible
21 Apr 9.8 18:35:11 10° SSW 18:48:20 27° SSE 18:53:21 21° ESE visible
21 Apr 9.8 20:50:10 10° SW 20:57:59 35° SW 20:57:59 35° SW visible
22 Apr 9.1 19:33:03 10° SW 19:48:16 48° SSE 19:48:51 47° SE visible
22 Apr 10.6 21:50:21 10° WSW 21:53:29 18° WSW 21:53:29 18° WSW visible
23 Apr 9.2 04:40:49 10° N 04:42:32 12° NNE 04:44:26 10° NE visible
23 Apr 9.9 18:16:31 10° SSW 18:31:42 33° SSE 18:39:48 17° E visible
23 Apr 9.1 20:32:17 10° SW 20:44:26 59° SW 20:44:26 59° SW visible
24 Apr 9.1 19:14:48 10° SW 19:31:33 57° SSE 19:35:29 43° E visible
24 Apr 10.0 21:33:00 10° WSW 21:40:08 31° W 21:40:08 31° W visible
25 Apr 9.0 04:24:12 10° N 04:26:26 15° NNE 04:28:54 10° ENE visible
25 Apr 10.0 17:58:04 10° SSW 18:14:54 40° SSE 18:26:21 10° E visible
25 Apr 8.7 20:14:28 10° WSW 20:30:32 84° NW 20:31:15 80° NNE visible
25 Apr 10.9 22:35:22 10° W 22:35:54 11° W 22:35:54 11° W visible
26 Apr 9.3 18:56:40 10° SW 19:14:38 67° SSE 19:22:24 25° ENE visible
26 Apr 9.5 21:15:41 10° WSW 21:27:03 43° WNW 21:27:03 43° WNW visible
